Regional Weather Roundup
Issued by NWS Boston, MA

Home | Current Version | Previous Version | Text Only | Print | Product List | Glossary On
Versions: 1 2 3 4 5 6 7 8 9 10 11 12 13 14 15 16 17 18 19 20 21 22 23 24 25 26 27 28 29 30 31 32 33 34 35 36 37 38 39 40 41 42 43 44 45 46 47 48 49 50
000
ASUS41 KBOX 232010
RWRBOX

REGIONAL WEATHER ROUNDUP
NATIONAL WEATHER SERVICE TAUNTON MA
400 PM EDT SAT SEP 23 2017

NOTE:  "FAIR" INDICATES FEW OR NO CLOUDS BELOW 12,000 FEET WITH NO
SIGNIFICANT WEATHER AND/OR OBSTRUCTIONS TO VISIBILITY.

MAZALL-232100-
EASTERN MASSACHUSETTS

CITY           SKY/WX    TMP DP  RH WIND       PRES   REMARKS
BOSTON         MOSUNNY   68  61  78 E8        30.01S
BEVERLY        SUNNY     76  61  59 NE6       30.00F
LAWRENCE       SUNNY     83  64  52 E6        30.02F
BEDFORD        MOSUNNY   83  61  47 NE7       29.99F
BLUE HILL        N/A     74  61  63 NE9       30.01F
NORWOOD        SUNNY     80  65  59 VRB7      30.00S
MARSHFIELD     CLOUDY    64  63  94 CALM      30.01F
PLYMOUTH       CLOUDY    67  63  87 NE6       30.02R
TAUNTON        SUNNY     77  64  64 VRB3      30.00S
NEW BEDFORD    PTSUNNY   73  65  75 NE13      29.99S
$$

MAZALL-232100-
CAPE COD AND THE ISLANDS

CITY           SKY/WX    TMP DP  RH WIND       PRES   REMARKS
FALMOUTH       FOG       63  63 100 N10G16    30.01R VSB 1/2
HYANNIS        FOG       63  62  97 N14       29.97S VSB 1
CHATHAM        CLOUDY    65  65 100 NE7       29.98S FOG
PROVINCETOWN   CLOUDY    62  61  96 N9        30.01S FOG
NANTUCKET      CLOUDY    63  63 100 N16       29.96S FOG
MARTHAS VNYRD  CLOUDY    68  64  87 N15G25    29.97F
$$

MAZALL-232100-
CENTRAL AND WESTERN MASSACHUSETTS

CITY           SKY/WX    TMP DP  RH WIND       PRES   REMARKS
WORCESTER      SUNNY     80  57  45 NE6       30.04F
FITCHBURG      SUNNY     85  59  41 N5        30.02S
ORANGE         SUNNY     85  46  25 N8        30.02F
SPRINGFIELD    MOSUNNY   86  47  25 NE12      29.99F
WESTFIELD      SUNNY     86  54  33 NE6       30.00F
NORTH ADAMS    SUNNY     81  57  43 VRB7      30.04F
PITTSFIELD     SUNNY     81  52  36 W5        30.05F
$$

RIZALL-232100-
RHODE ISLAND

CITY           SKY/WX    TMP DP  RH WIND       PRES   REMARKS
PROVIDENCE     MOSUNNY   82  67  60 N14       29.99F
NEWPORT        SUNNY     77  67  71 NE16      29.99S
BLOCK ISLAND   SUNNY     72  66  81 NE10      29.98F
SMITHFIELD     SUNNY     80  66  62 NE9       30.01F
WESTERLY       SUNNY     84  66  54 N9        29.98F
$$

CTZALL-232100-
CONNECTICUT

CITY           SKY/WX    TMP DP  RH WIND       PRES   REMARKS
BRADLEY INTL   MOSUNNY   87  53  31 N13       30.00F
HARTFORD       SUNNY     86  57  37 N10       29.99F
BRIDGEPORT     SUNNY     87  60  40 VRB5      29.98F
DANBURY        SUNNY     85  47  26 N8G18     30.03F
GROTON         MOSUNNY   84  65  52 N10       29.97F
NEW HAVEN      MOSUNNY   87  57  35 N10       29.98F
CHESTER        FAIR      86  61  42 N13       30.00F
MERIDEN        SUNNY     87  58  37 N9        29.99F
WILLIMANTIC    SUNNY     86  63  45 N9        29.99F
OXFORD         SUNNY     82  58  43 NW10      30.03F
$$

MEZ002-015-021-024-NHZ003-005-008-011-012-014-VTZ005-008-232100-
NORTHERN NEW ENGLAND

CITY           SKY/WX    TMP DP  RH WIND       PRES   REMARKS
PORTLAND ME    MOSUNNY   78  56  46 S7        30.00F
BANGOR ME      MOSUNNY   83  53  35 S5        29.97F
CONCORD NH     SUNNY     87  54  32 NW6       30.01F
MANCHESTER NH  MOSUNNY   85  55  35 N8        29.99F
NASHUA NH      SUNNY     83  60  45 N6        30.01F
PORTSMOUTH NH  MOSUNNY   74  58  59 SE8       29.99F
JAFFREY NH     SUNNY     85  52  32 VRB6      30.05S
KEENE NH       SUNNY     88  51  28 NW10      30.02F
BURLINGTON VT  PTSUNNY   85  54  34 NE5       30.03F
MT. WASHINGTON MOSUNNY   57  52  82 NW20G29     N/A
$$

NYZ052-076-232100-
EASTERN NEW YORK

CITY           SKY/WX    TMP DP  RH WIND       PRES   REMARKS
ALBANY         MOSUNNY   84  54  35 NE5       30.05F
NEW YORK CITY  MOSUNNY   85  48  27 N16G23    29.99F
$$

ANZALL-232100-
MARINE OBSERVATIONS

STATION/POSITION TIME  TEMP    WIND        PRES    VSBY  WAVE
                       AIR SEA DIR/SP/G                  HT/PER
                 (UTC) (F)     (DEG/KT/KT) (MB)    (MI)  (FT/S)
BOSTON BUOY      1950   61 60   50/  4/  6 1016.2F         4/ 8
BUZZARDS BAY     1900   67      10/ 16/ 17 1015.6R
NANTUCKET SOUND  1950   62 62  350/ 14/ 16 1014.6S         2/ 3
MASS BAY-STELLWA 1904   62 60   60/  8/  8 1015.6S         5/ 8
ISLE OF SHOALS   1900   63     120/  3/  4 1016.3F
S OF BLOCK IS    NOT AVBL
$$

......................KEY.........................
  SKY/WX - SKY CONDITION/PRESENT WEATHER
  TMP    - TEMPERATURE IN FAHRENHEIT
  DWPT   - DEWPOINT IN FAHRENHEIT
  RH     - RELATIVE HUMIDITY IN PERCENT
  WIND   - DIRECTION AND SPEED IN MPH
  PRES   - MEAN SEA LEVEL PRESSURE IN INCHES OF HG
  WCI    - WIND CHILL INDEX
  VSB    - VISIBILITY IN MILES
  HX     - HEAT INDEX
  TC     - TEMPERATURE IN CELSIUS
  VRB    - VARIABLE WIND DIRECTION
  N/A    - NOT AVAILABLE



USA.gov is the U.S. government's official web portal to all federal, state and local government web resources and services.